Location: Champs
(48.8539°N, 2.6040°E)
Time: 13:24:37
(UTC+00:00)

Cosmos 1484 Rocket - Pass Details

Date: 26 October 2021
Orbit: 505 x 556 km, 97.5° (Epoch: 06 December)

Event Time Altitude Azimuth Distance (km) Brightness Sun altitude
Rises 03:58:30 0° 16° (NNE) 2,667 6.7 -25.0°
Reaches altitude 10° 04:00:38 10° 21° (NNE) 1,781 5.8 -24.6°
Maximum altitude 04:04:25 56° 100° (E) 642 3.3 -24.0°
Enters shadow 04:05:53 33° 163° (SSE) 912 3.9 -23.8°
